LEMUR-2-SHAINAJOHL

Last updated on Wed Feb 14 2018 16:20:44 GMT+0000 (Coordinated Universal Time)

1 42771U 17036G 18044.91608783 .00001309 00000-0 62522-4 0 9991 2 42771 97.4187 106.3586 0016429 133.7164 226.5435 15.20688703 35763
UTC large
Height (km)
Speed (km/s)
/
Latitude / Longitude
Inclination (degrees)
Orbital Period (minutes)
Azimuth
Elevation
Range (km)
Doppler Factor

Next 0 passes for location: London (51.5072 / 0.1276)

Sorry there are no passes over London.